FW3731 Weather Reports


Display with metric or nautical units.
time (UTC)temp
F
wind
direction
speed
MPH
gust
MPH
rain 1hr
in
rain 24hr
in
rain mn
in
humidity
%
barometer
mb
20260506214538 61 13 3.0 14.0 0.00 0.30 0.04 44 1017.5
20260506213037 61 24 4.0 10.0 0.00 0.30 0.04 45 1017.6
20260506211537 62 47 8.0 14.0 0.00 0.30 0.04 45 1017.5
20260506210035 61 32 0.0 9.0 0.00 0.30 0.04 46 1017.7
20260506204536 61 3 3.0 16.0 0.00 0.31 0.04 45 1017.8
20260506203057 62 3 2.0 7.0 0.00 0.31 0.04 47 1018.1
20260506201533 61 41 1.0 8.0 0.00 0.31 0.04 46 1018.4
20260506200043 61 47 1.0 10.0 0.00 0.31 0.04 46 1018.4
20260506194527 61 5 0.0 5.0 0.00 0.31 0.04 50 1018.8
20260506193025 61 330 2.0 13.0 0.00 0.31 0.04 49 1019.0
20260506191524 61 354 2.0 10.0 0.00 0.31 0.04 43 1019.2
20260506190032 61 342 1.0 14.0 0.00 0.31 0.04 45 1019.1
20260506184520 61 5 6.0 13.0 0.00 0.31 0.04 42 1019.2
20260506183017 60 329 1.0 13.0 0.00 0.31 0.04 49 1019.3
20260506181514 60 352 2.0 12.0 0.00 0.31 0.04 51 1019.6
20260506180012 59 41 2.0 11.0 0.00 0.31 0.04 53 1019.5
20260506174514 60 72 1.0 7.0 0.00 0.31 0.04 54 1019.7
20260506173008 59 108 0.0 4.0 0.00 0.31 0.04 55 1019.6
20260506171513 58 18 5.0 11.0 0.00 0.31 0.04 51 1019.3
20260506170004 59 55 0.0 13.0 0.00 0.31 0.04 56 1019.5
20260506164502 59 357 0.0 6.0 0.00 0.31 0.04 60 1019.7
20260506163133 58 8 0.0 5.0 0.00 0.31 0.04 59 1019.6
20260506161556 57 336 0.0 8.0 0.00 0.31 0.04 61 1019.5
20260506160053 56 101 0.0 7.0 0.00 0.31 0.04 62 1019.3
20260506154554 56 15 1.0 8.0 0.00 0.31 0.04 63 1019.5
20260506153055 55 307 0.0 6.0 0.00 0.31 0.04 63 1019.6
20260506151545 55 326 1.0 4.0 0.00 0.31 0.04 64 1019.4
20260506150044 54 4 3.0 8.0 0.00 0.31 0.04 62 1019.4
20260506144542 54 360 1.0 6.0 0.00 0.31 0.04 69 1019.2
20260506143041 54 330 0.0 5.0 0.00 0.31 0.04 72 1019.3
20260506141539 53 342 0.0 3.0 0.00 0.31 0.04 74 1018.9
20260506140037 53 312 0.0 3.0 0.00 0.31 0.04 78 1018.5
20260506134533 51 127 0.0 1.0 0.00 0.31 0.04 81 1018.8
20260506133029 50 319 0.0 1.0 0.00 0.31 0.04 85 1018.6
20260506131527 48 319 0.0 0.0 0.00 0.31 0.04 88 1018.7
20260506130021 47 319 0.0 0.0 0.00 0.31 0.04 90 1019.0
20260506124517 46 319 0.0 1.0 0.00 0.31 0.04 90 1019.1
20260506123015 46 325 0.0 1.0 0.00 0.31 0.04 91 1019.0
20260506121513 45 31 0.0 2.0 0.00 0.31 0.04 92 1018.8
20260506120013 45 238 0.0 1.0 0.00 0.31 0.04 93 1018.9
20260506114510 45 237 0.0 5.0 0.00 0.31 0.04 93 1018.4
20260506113008 45 283 0.0 3.0 0.00 0.31 0.04 93 1018.1
20260506111504 45 13 0.0 1.0 0.00 0.31 0.04 93 1017.7
20260506110004 45 13 0.0 2.0 0.00 0.31 0.04 94 1017.5
20260506104502 45 10 0.0 3.0 0.00 0.31 0.04 94 1017.1
20260506103106 45 313 0.0 0.0 0.00 0.31 0.04 95 1017.3
20260506101632 45 219 0.0 3.0 0.00 0.31 0.04 95 1017.2
20260506100100 46 195 0.0 3.0 0.00 0.31 0.04 95 1017.5
20260506094558 45 354 0.0 1.0 0.00 0.50 0.04 95 1016.6
20260506093058 45 317 0.0 4.0 0.00 0.50 0.04 95 1015.9
20260506091552 45 168 0.0 1.0 0.00 0.50 0.04 95 1015.9
20260506084557 45 334 0.0 2.0 0.00 0.50 0.04 94 1015.0
20260506083052 46 351 0.0 2.0 0.00 0.50 0.04 94 1015.2
20260506081548 46 210 0.0 2.0 0.00 0.50 0.04 94 1015.6
20260506073045 46 245 0.0 0.0 0.02 0.50 0.04 94 1015.9
20260506071543 46 245 0.0 2.0 0.02 0.50 0.04 94 1016.4
20260506061537 46 227 0.0 1.0 0.02 0.48 0.02 94 1015.8
20260506044525 45 356 1.0 3.0 0.13 0.46 0.46 93 1014.8
20260506043025 45 68 1.0 4.0 0.16 0.45 0.45 92 1014.4
20260506041535 45 14 3.0 6.0 0.16 0.43 0.43 92 1014.4
20260506040023 45 6 0.0 6.0 0.13 0.38 0.38 92 1014.8
20260506034532 45 3 0.0 3.0 0.09 0.33 0.33 92 1015.0
20260506033019 45 15 1.0 6.0 0.06 0.28 0.28 91 1014.6
20260506031518 46 13 1.0 6.0 0.03 0.26 0.26 91 1014.6
20260506030017 46 4 1.0 4.0 0.02 0.25 0.25 91 1014.3
20260506024515 46 22 1.0 7.0 0.01 0.24 0.24 90 1014.3
20260506023013 46 354 2.0 6.0 0.00 0.23 0.23 89 1014.0
20260506021512 46 30 1.0 7.0 0.00 0.23 0.23 90 1014.0
20260506020011 45 342 1.0 4.0 0.00 0.23 0.23 90 1013.9
20260506014508 45 359 0.0 5.0 0.00 0.23 0.23 90 1013.7
20260506013014 45 48 2.0 10.0 0.00 0.23 0.23 91 1013.0
20260506011515 45 336 3.0 14.0 0.00 0.23 0.23 92 1012.5
20260506010007 45 359 3.0 13.0 0.00 0.23 0.23 92 1012.6
20260506004604 45 1 5.0 12.0 0.01 0.23 0.23 91 1012.8
20260506003058 45 11 6.0 15.0 0.01 0.23 0.23 91 1012.6
20260506001558 46 345 6.0 16.0 0.01 0.23 0.23 93 1012.6
20260506000059 46 354 5.0 14.0 0.01 0.23 0.23 93 1012.2
20260505234552 47 8 3.0 9.0 0.00 0.22 0.22 94 1012.4
20260505233054 47 342 4.0 10.0 0.01 0.22 0.22 93 1012.0
20260505231549 47 335 2.0 9.0 0.01 0.22 0.22 93 1012.0
20260505230112 47 18 2.0 12.0 0.01 0.22 0.22 93 1011.7
20260505224545 47 327 1.0 6.0 0.02 0.22 0.22 92 1011.8
20260505223046 47 8 0.0 7.0 0.01 0.21 0.21 92 1012.1
20260505221553 47 23 1.0 7.0 0.01 0.21 0.21 92 1011.7
20260505220052 48 340 0.0 8.0 0.01 0.21 0.21 91 1011.6